[[{"header":{"parameterUnit":"m.s-1","parameterCategory":1,"la1":30.2991,"la2":30.254,"lo1":-89.0895,"lo2":-89.0444,"dy":0.0017,"dx":0.0017,"nx":28,"ny":28,"refTime":"2025-08-22T03:00:00:Z","depth":0,"parameterNumber":2,"parameterNumberName":"U-component_of_WINDS"},"data":[0,0,0,0,0,0,0,0,0,0,0,0,0,0,0,0,0,0,0,0,0,0,0,0,0,0,0,0,0,0,0,0,0,0,0,0,0,0,0,0,0,0,0,0,0,0,0,0,0,0,0,0,0,0,0,0,0,0,0.1554,0.1554,0,0.1491,0.1491,0.149,0.1443,0.1443,0.1443,0.1442,0.1375,0.1374,0.1373,0,0,0,0,0,0,0,0,0,0,0,0,0,0.1633,0.1631,0.1554,0.1554,0.1553,0.1491,0.1491,0.149,0.1444,0.1443,0.1443,0.1442,0.1376,0.1374,0.1373,0,0,0,0,0,0,0,0,0,0,0,0,0,0.1587,0.1631,0.1555,0.1522,0.1519,0.1492,0.1491,0.1489,0.1444,0.1443,0.1442,0.1442,0.1376,0.1374,0.1372,0.1371,0,0,0.1366,0.1365,0,0,0,0,0,0,0,0,0.159,0.1584,0.1528,0.1525,0.1521,0.1475,0.1493,0.145,0.1444,0.1472,0.1442,0.1442,0.1409,0.1404,0.1393,0.1368,0.1365,0.1366,0.1364,0.1363,0.1363,0,0,0,0,0,0,0,0.1593,0.1587,0.1529,0.1527,0.1523,0.151,0.1503,0.1485,0.1444,0.147,0.1466,0.1459,0.1407,0.1396,0.1391,0.1364,0.1366,0.1364,0.1363,0.1362,0.1334,0.1334,0,0,0,0,0,0,0.1601,0.159,0.1531,0.1527,0.1554,0.151,0.1502,0.149,0.1445,0.1437,0.146,0.1458,0.1399,0.1394,0.1389,0.1384,0.1363,0.1361,0.136,0.1333,0.1334,0.1334,0,0,0,0,0,0,0.1603,0.1597,0.1534,0.1558,0.1549,0.1509,0.1496,0.1489,0.1478,0.1437,0.143,0.1456,0.1399,0.1392,0.1376,0.1381,0.1361,0.1359,0.1332,0.1333,0.1334,0.1374,0,0,0,0,0,0,0.1606,0.1598,0.1597,0.1558,0.1548,0.1523,0.1497,0.1488,0.1475,0.1471,0.1432,0.1425,0.1398,0.1379,0.1374,0.1377,0.1357,0.1332,0.1333,0.1334,0.1372,0.1376,0.138,0,0,0,0,0,0.1609,0.1611,0.1597,0.1591,0.1546,0.1523,0.1517,0.1487,0.1475,0.1474,0.1448,0.1426,0.1381,0.1378,0.1371,0.1375,0.1331,0.1332,0.1334,0.137,0.1375,0.1379,0,0,0,0,0,0,0.1651,0.1605,0.159,0.1579,0.1556,0.1515,0.1513,0.1493,0.1471,0.1469,0.1431,0.1423,0.141,0.1391,0.1388,0.1371,0.1353,0.1353,0.1384,0.1388,0.1392,0.1396,0.1355,0,0,0,0,0,0.1659,0.1645,0.1605,0.16,0.1589,0.1553,0.1542,0.1521,0.1494,0.1484,0.1456,0.1431,0.1411,0.1398,0.1378,0.1369,0.136,0.1368,0.1372,0.1375,0.1375,0.1368,0.1371,0.1338,0.1338,0.1338,0,0,0.1676,0.1649,0.1642,0.1608,0.1587,0.1572,0.1545,0.153,0.1519,0.1481,0.1464,0.1443,0.1412,0.14,0.1393,0.1383,0.1383,0.1377,0.138,0.1378,0.137,0.1373,0.1376,0.1339,0.1339,0.1339,0,0,0.1698,0.1677,0.167,0.1649,0.1618,0.1595,0.1593,0.1556,0.1541,0.1524,0.1495,0.148,0.1447,0.1426,0.1411,0.1425,0.1404,0.142,0.1439,0.1433,0.1435,0.1437,0.1442,0.1444,0.142,0.142,0.142,0,0.1722,0.17,0.1668,0.1656,0.1641,0.1607,0.1599,0.1581,0.1544,0.1534,0.1524,0.1482,0.1459,0.144,0.1444,0.1433,0.1429,0.1424,0.1438,0.1439,0.1441,0.1445,0.1446,0.1422,0.1422,0.1422,0.1422,0,0.173,0.1715,0.1713,0.1679,0.1664,0.1654,0.1621,0.1609,0.1589,0.1567,0.1549,0.152,0.1493,0.1487,0.1467,0.1466,0.1461,0.1445,0.1427,0.1447,0.1449,0.1451,0.1425,0.1425,0.1424,0.1423,0,0,0.1777,0.1727,0.1726,0.171,0.1674,0.1661,0.1649,0.1623,0.1613,0.159,0.1578,0.1551,0.1535,0.1518,0.1496,0.1491,0.1503,0.1475,0.1474,0.148,0.1499,0.151,0.1513,0.1489,0.1489,0.1489,0.1501,0,0.1793,0.177,0.1742,0.1728,0.1713,0.1681,0.167,0.1646,0.1624,0.1608,0.1584,0.1565,0.1547,0.1536,0.1529,0.1503,0.1506,0.1502,0.1477,0.1476,0.1485,0.1514,0.1526,0.1539,0.1502,0.1502,0.1502,0,0.1808,0.1787,0.1772,0.1736,0.1729,0.172,0.1694,0.1679,0.165,0.1635,0.1616,0.1592,0.1577,0.1562,0.1539,0.1537,0.1525,0.1511,0.1511,0.1506,0.149,0.151,0.1542,0.1543,0.1504,0.1504,0.1503,0,0.1842,0.181,0.1796,0.1784,0.1742,0.1737,0.1719,0.169,0.1677,0.1654,0.1644,0.1619,0.1606,0.1587,0.1556,0.1548,0.1537,0.1519,0.1523,0.1524,0.1521,0.1522,0.1551,0.1515,0.1515,0.1515,0.1515,0,0.1863,0.1855,0.1811,0.1803,0.1793,0.176,0.1751,0.173,0.1705,0.1691,0.1662,0.165,0.1611,0.1594,0.157,0.1555,0.1549,0.1535,0.1529,0.1537,0.1539,0.1528,0.1526,0.1516,0.1516,0.1516,0.1516,0,0.1899,0.187,0.1853,0.1815,0.1806,0.18,0.1767,0.1757,0.1734,0.1717,0.1711,0.1675,0.1653,0.1622,0.159,0.1574,0.1562,0.1553,0.1572,0.1568,0.1573,0.1573,0.1596,0.1597,0.1562,0.1562,0.1563,0,0.1913,0.1906,0.1868,0.1857,0.1841,0.1824,0.181,0.1777,0.1764,0.1731,0.1725,0.1702,0.1681,0.1648,0.1618,0.1593,0.1582,0.1592,0.1578,0.1587,0.1581,0.1582,0.158,0.1595,0.1596,0.1596,0.1596,0,0.1941,0.1927,0.1908,0.1885,0.1869,0.1849,0.1827,0.1819,0.1782,0.1768,0.1746,0.173,0.1698,0.1675,0.1647,0.1627,0.1605,0.1601,0.16,0.1609,0.162,0.1613,0.158,0.16,0.16,0.16,0.16,0.1599,0.1966,0.1958,0.193,0.191,0.189,0.1871,0.186,0.1836,0.1817,0.1789,0.1771,0.175,0.1721,0.1681,0.1663,0.1645,0.1636,0.1635,0.1635,0.1635,0.1638,0.1624,0.164,0.164,0.164,0.164,0.164,0,0.1991,0.1972,0.1954,0.1925,0.1909,0.1891,0.1866,0.1853,0.1835,0.1811,0.1792,0.1766,0.1743,0.1712,0.1687,0.1678,0.1668,0.1673,0.1672,0.1668,0.1648,0.1651,0.1682,0.1682,0.1682,0.1682,0.1682,0.1682,0.2003,0.1989,0.1971,0.1947,0.1927,0.1907,0.1894,0.1875,0.1855,0.1829,0.181,0.179,0.1763,0.1735,0.1713,0.1704,0.1696,0.1704,0.1692,0.1673,0.167,0.1666,0.1668,0.1703,0.1703,0.1713,0.1713,0.1714]},{"header":{"parameterUnit":"m.s-1","parameterCategory":1,"la1":30.2991,"la2":30.254,"lo1":-89.0895,"lo2":-89.0444,"dy":0.0017,"dx":0.0017,"nx":28,"ny":28,"refTime":"2025-08-22T03:00:00:Z","depth":0,"parameterNumber":3,"parameterNumberName":"V-component_of_WINDS"},"data":[0,0,0,0,0,0,0,0,0,0,0,0,0,0,0,0,0,0,0,0,0,0,0,0,0,0,0,0,0,0,0,0,0,0,0,0,0,0,0,0,0,0,0,0,0,0,0,0,0,0,0,0,0,0,0,0,0,0,-0.25,-0.25,0,-0.2495,-0.2495,-0.2495,-0.2528,-0.2529,-0.253,-0.2531,-0.2526,-0.2525,-0.2524,0,0,0,0,0,0,0,0,0,0,0,0,0,-0.2537,-0.2536,-0.25,-0.25,-0.25,-0.2495,-0.2495,-0.2495,-0.2528,-0.2529,-0.2531,-0.2532,-0.2527,-0.2526,-0.2524,0,0,0,0,0,0,0,0,0,0,0,0,0,-0.2526,-0.2536,-0.25,-0.2516,-0.2517,-0.2495,-0.2495,-0.2495,-0.2528,-0.2529,-0.2531,-0.2532,-0.2527,-0.2526,-0.2524,-0.2487,0,0,-0.252,-0.2519,0,0,0,0,0,0,0,0,-0.2526,-0.2524,-0.2514,-0.2515,-0.2516,-0.2514,-0.2507,-0.2493,-0.2528,-0.2524,-0.2531,-0.2533,-0.2521,-0.252,-0.2516,-0.2487,-0.2487,-0.252,-0.2519,-0.2518,-0.2518,0,0,0,0,0,0,0,-0.2527,-0.2525,-0.2498,-0.2513,-0.2515,-0.2523,-0.2523,-0.2504,-0.2515,-0.2524,-0.2527,-0.2526,-0.2522,-0.2518,-0.2516,-0.2487,-0.252,-0.2518,-0.2517,-0.2517,-0.2427,-0.2425,0,0,0,0,0,0,-0.2526,-0.2525,-0.2498,-0.2498,-0.2525,-0.2521,-0.2521,-0.2513,-0.2515,-0.2517,-0.2525,-0.2527,-0.252,-0.2518,-0.2516,-0.2473,-0.2518,-0.2517,-0.2516,-0.2428,-0.2426,-0.2425,0,0,0,0,0,0,-0.2526,-0.2523,-0.2499,-0.2512,-0.251,-0.2519,-0.251,-0.2512,-0.2508,-0.2515,-0.2517,-0.2518,-0.2521,-0.2519,-0.2494,-0.2473,-0.2516,-0.2515,-0.243,-0.2428,-0.2426,-0.2386,0,0,0,0,0,0,-0.2527,-0.2523,-0.2509,-0.2512,-0.2509,-0.2476,-0.2509,-0.2511,-0.2505,-0.2509,-0.251,-0.2511,-0.2522,-0.2496,-0.2493,-0.2472,-0.2513,-0.2432,-0.2429,-0.2426,-0.2389,-0.2383,-0.2377,0,0,0,0,0,-0.2529,-0.2498,-0.2508,-0.2505,-0.2492,-0.2475,-0.2473,-0.2486,-0.2504,-0.249,-0.2494,-0.2511,-0.2476,-0.2493,-0.249,-0.2468,-0.2433,-0.243,-0.2427,-0.2392,-0.2384,-0.2377,0,0,0,0,0,0,-0.2493,-0.2499,-0.251,-0.2479,-0.2476,-0.2481,-0.2463,-0.2477,-0.2469,-0.2473,-0.2489,-0.2489,-0.2462,-0.2463,-0.2482,-0.2433,-0.2458,-0.2454,-0.2433,-0.2425,-0.2419,-0.242,-0.2512,0,0,0,0,0,-0.2481,-0.2467,-0.2473,-0.2446,-0.2444,-0.2454,-0.2447,-0.2457,-0.2454,-0.2453,-0.2456,-0.2453,-0.2442,-0.2434,-0.2423,-0.239,-0.239,-0.2373,-0.2367,-0.2362,-0.2358,-0.2341,-0.2333,-0.2414,-0.2414,-0.2414,0,0,-0.2457,-0.2459,-0.2449,-0.2438,-0.2437,-0.2422,-0.2452,-0.2435,-0.2424,-0.2451,-0.2428,-0.243,-0.2428,-0.2398,-0.2386,-0.2399,-0.2336,-0.2358,-0.2354,-0.2353,-0.2336,-0.2329,-0.2322,-0.2411,-0.2412,-0.2412,0,0,-0.2406,-0.2406,-0.2383,-0.2381,-0.2379,-0.2386,-0.238,-0.2383,-0.2385,-0.2362,-0.2382,-0.2369,-0.2349,-0.2346,-0.2343,-0.2291,-0.2306,-0.2287,-0.2255,-0.2238,-0.2231,-0.2226,-0.2207,-0.22,-0.2283,-0.2283,-0.2283,0,-0.2376,-0.2355,-0.2369,-0.2351,-0.2346,-0.2369,-0.2346,-0.2343,-0.2338,-0.2334,-0.2349,-0.2324,-0.2324,-0.2294,-0.2282,-0.2278,-0.2272,-0.2287,-0.2231,-0.2226,-0.2221,-0.2203,-0.2196,-0.2281,-0.2281,-0.2281,-0.2281,0,-0.2318,-0.2303,-0.2285,-0.2279,-0.2272,-0.2251,-0.2263,-0.2254,-0.2264,-0.227,-0.2247,-0.2248,-0.2238,-0.2232,-0.2242,-0.2204,-0.2212,-0.2228,-0.2254,-0.221,-0.2194,-0.2188,-0.2277,-0.2278,-0.2279,-0.2279,0,0,-0.2244,-0.2247,-0.224,-0.2237,-0.2237,-0.2226,-0.2206,-0.2197,-0.2189,-0.2184,-0.2168,-0.2151,-0.2166,-0.2162,-0.2172,-0.2157,-0.2116,-0.2176,-0.2176,-0.2164,-0.2074,-0.2061,-0.2053,-0.2126,-0.2125,-0.2124,-0.2074,0,-0.2194,-0.2161,-0.2173,-0.2139,-0.2125,-0.2147,-0.213,-0.2128,-0.2133,-0.2122,-0.2127,-0.2114,-0.2135,-0.2133,-0.2119,-0.2124,-0.2098,-0.2127,-0.2111,-0.211,-0.2111,-0.2044,-0.2031,-0.1984,-0.2067,-0.2066,-0.2066,0,-0.2131,-0.2124,-0.2088,-0.2091,-0.2085,-0.207,-0.2062,-0.2051,-0.205,-0.2054,-0.2049,-0.2063,-0.2044,-0.207,-0.2044,-0.2064,-0.2058,-0.2059,-0.2058,-0.2057,-0.2085,-0.2041,-0.1969,-0.1962,-0.2056,-0.2057,-0.2057,0,-0.208,-0.2062,-0.2038,-0.2036,-0.2038,-0.2026,-0.2027,-0.2026,-0.202,-0.2013,-0.2009,-0.2001,-0.1996,-0.1989,-0.2,-0.2018,-0.1973,-0.1999,-0.1976,-0.1975,-0.1965,-0.1965,-0.189,-0.1961,-0.1961,-0.1962,-0.1962,0,-0.2022,-0.2,-0.2015,-0.2001,-0.1976,-0.1991,-0.1966,-0.1969,-0.1968,-0.1955,-0.1973,-0.196,-0.1976,-0.1964,-0.1973,-0.195,-0.1948,-0.1951,-0.1953,-0.1949,-0.1948,-0.1945,-0.1949,-0.196,-0.196,-0.196,-0.1961,0,-0.1961,-0.1971,-0.1947,-0.195,-0.1951,-0.1933,-0.1936,-0.1923,-0.1929,-0.1911,-0.1908,-0.1918,-0.1905,-0.1915,-0.1903,-0.1909,-0.1878,-0.1886,-0.1879,-0.1881,-0.1857,-0.1859,-0.1777,-0.1767,-0.1844,-0.1843,-0.1843,0,-0.1924,-0.1907,-0.1909,-0.1901,-0.1901,-0.1888,-0.1882,-0.1895,-0.1888,-0.1885,-0.1872,-0.1861,-0.1853,-0.1831,-0.1837,-0.1828,-0.1835,-0.1807,-0.1833,-0.183,-0.1834,-0.1835,-0.1833,-0.1801,-0.18,-0.1799,-0.1799,0,-0.1857,-0.1862,-0.1852,-0.1844,-0.1836,-0.183,-0.1826,-0.1818,-0.1833,-0.1823,-0.1811,-0.1804,-0.1792,-0.178,-0.1773,-0.1773,-0.1788,-0.179,-0.1784,-0.178,-0.1777,-0.1778,-0.1864,-0.1792,-0.1793,-0.1793,-0.1794,-0.1794,-0.1806,-0.1792,-0.1792,-0.178,-0.1778,-0.1774,-0.1761,-0.1766,-0.1756,-0.1746,-0.1755,-0.174,-0.1739,-0.173,-0.1729,-0.1717,-0.1729,-0.172,-0.1718,-0.1716,-0.1712,-0.1778,-0.1716,-0.1716,-0.1716,-0.1716,-0.1717,0,-0.174,-0.1741,-0.173,-0.1723,-0.1714,-0.1729,-0.1725,-0.1716,-0.1702,-0.17,-0.1692,-0.1677,-0.1666,-0.1671,-0.1662,-0.1651,-0.1658,-0.1648,-0.1649,-0.1649,-0.1702,-0.1708,-0.1643,-0.1643,-0.1643,-0.1643,-0.1643,-0.1643,-0.1704,-0.1681,-0.1687,-0.1663,-0.1664,-0.1649,-0.1646,-0.1642,-0.164,-0.1623,-0.1614,-0.1617,-0.1618,-0.1609,-0.1599,-0.1601,-0.1597,-0.1585,-0.1589,-0.1638,-0.1645,-0.1652,-0.1658,-0.1584,-0.1584,-0.1537,-0.1537,-0.1536]}]]